GW5386 Weather Reports


time (UTC)temp
C
wind
direction
speed
KPH
gust
KPH
rain 1hr
cm
rain 24hr
cm
rain mn
cm
humidity
%
barometer
mb
20260504081556 7 61 12.9 29.0 0.00 0.00 0.00 52 1014.9
20260504044532 12 359 37.0 48.3 0.00 0.00 0.00 33 1010.5
20260504043032 13 352 24.1 32.2 0.00 0.00 0.00 33 1010.1
20260504041534 13 72 6.4 19.3 0.00 0.00 0.00 33 1009.9
20260504040032 13 263 4.8 14.5 0.00 0.00 0.00 33 1009.6
20260504034540 13 37 8.0 24.1 0.00 0.00 0.00 32 1009.2
20260504033031 13 46 12.9 25.7 0.00 0.00 0.00 32 1008.9
20260504031528 14 340 14.5 29.0 0.00 0.00 0.00 31 1008.6
20260504030037 15 36 9.7 20.9 0.00 0.00 0.00 30 1008.4
20260504024527 15 84 8.0 17.7 0.00 0.00 0.00 29 1008.3
20260504023027 16 338 9.7 19.3 0.00 0.00 0.00 27 1008.1
20260504021525 17 72 6.4 24.1 0.00 0.00 0.00 23 1008.1
20260504020028 18 354 8.0 11.3 0.00 0.00 0.00 17 1008.0
20260504014525 20 346 9.7 20.9 0.00 0.00 0.00 15 1008.1
20260504013025 21 323 16.1 27.4 0.00 0.00 0.00 13 1008.1
20260504011522 21 315 14.5 24.1 0.00 0.00 0.00 13 1008.1
20260504010021 22 323 14.5 29.0 0.00 0.00 0.00 13 1008.2
20260504004522 22 330 16.1 29.0 0.00 0.00 0.00 13 1008.2
20260504003017 22 11 16.1 32.2 0.00 0.00 0.00 13 1008.3
20260504001516 22 302 20.9 29.0 0.00 0.00 0.00 12 1008.5
20260504000016 22 310 22.5 35.4 0.00 0.00 0.00 12 1008.6
20260503234514 23 321 16.1 30.6 0.00 0.00 0.00 12 1008.6
20260503233013 23 20 22.5 32.2 0.00 0.00 0.00 12 1008.7
20260503231517 23 308 17.7 33.8 0.00 0.00 0.00 12 1008.8
20260503230013 23 298 19.3 33.8 0.00 0.00 0.00 12 1008.7
20260503224509 22 279 14.5 33.8 0.00 0.00 0.00 13 1009.0
20260503223020 22 298 19.3 29.0 0.00 0.00 0.00 12 1009.2
20260503221506 23 307 20.9 43.5 0.00 0.00 0.00 12 1009.2
20260503220006 22 309 22.5 29.0 0.00 0.00 0.00 13 1009.4
20260503214502 22 297 22.5 37.0 0.00 0.00 0.00 13 1009.6
20260503213001 22 290 12.9 37.0 0.00 0.00 0.00 13 1009.6
20260503211621 22 250 17.7 30.6 0.00 0.00 0.00 14 1009.8
20260503210057 22 320 22.5 33.8 0.00 0.00 0.00 13 1010.1
20260503204615 22 290 9.7 25.7 0.00 0.00 0.00 14 1010.2
20260503203104 22 290 17.7 29.0 0.00 0.00 0.00 14 1010.3
20260503201553 22 281 12.9 29.0 0.00 0.00 0.00 14 1010.5
20260503200052 21 311 9.7 29.0 0.00 0.00 0.00 14 1010.7
20260503194548 21 301 12.9 20.9 0.00 0.00 0.00 14 1011.0
20260503193047 21 323 19.3 27.4 0.00 0.00 0.00 15 1011.2
20260503191557 21 300 14.5 29.0 0.00 0.00 0.00 16 1011.3
20260503190043 20 323 9.7 22.5 0.00 0.00 0.00 16 1011.5
20260503184556 20 297 17.7 27.4 0.00 0.00 0.00 16 1011.6
20260503183045 20 287 11.3 30.6 0.00 0.00 0.00 15 1011.7
20260503181537 20 309 16.1 29.0 0.00 0.00 0.00 15 1011.9
20260503180036 20 345 8.0 22.5 0.00 0.00 0.00 17 1012.1
20260503174544 20 303 17.7 30.6 0.00 0.00 0.00 16 1012.3
20260503173032 20 288 14.5 25.7 0.00 0.00 0.00 16 1012.5
20260503171533 20 340 12.9 25.7 0.00 0.00 0.00 17 1012.5